Wind_Speed
28 26 27 25 26 25 24 25 27 26 28 30 34 35 36 38 39 42 43 48 50 49 51 54 58 57 53
33 31 32 29 26 24 26 28 28 27 30 33 34 37 38 38 41 42 45 48 51 50 52 56 58 57 53
34 33 32 27 26 28 29 29 28 28 33 34 36 39 40 40 42 44 47 52 49 52 56 60 59 55 52
36 34 31 29 30 30 29 29 28 31 35 35 37 39 41 41 44 47 49 51 49 53 58 59 57 51 51
37 34 33 32 33 31 28 29 30 33 35 36 38 41 43 43 47 49 52 51 51 57 60 57 52 49 52
40 38 37 34 30 32 32 31 33 34 35 36 39 42 45 45 49 53 52 50 53 58 60 55 49 49 53
42 39 35 33 33 34 35 35 33 35 36 38 41 44 45 46 51 53 49 50 55 60 60 51 47 50 54
42 41 40 39 36 36 37 36 34 35 37 40 43 44 45 48 55 48 50 54 58 61 57 46 47 51 56
45 43 41 39 39 39 39 36 35 36 39 42 44 44 47 52 46 47 51 54 59 60 50 44 47 52 55
47 45 45 43 41 39 38 36 36 38 41 42 43 47 51 49 48 50 53 57 60 55 44 44 48 53 53
49 48 45 43 42 41 39 37 39 41 43 44 44 49 50 46 47 51 55 58 57 46 41 44 50 52 52
50 47 45 45 44 43 41 39 39 42 43 46 47 47 47 46 49 53 57 57 50 41 41 45 52 53 52
50 48 46 47 44 43 41 40 41 42 44 49 49 41 45 49 51 54 55 51 43 41 42 48 52 55 55
49 48 46 46 43 41 41 42 43 43 48 43 41 43 48 50 52 53 51 45 41 42 46 50 52 54 54
44 44 44 45 42 42 42 42 43 44 43 42 43 48 50 52 52 51 47 43 41 44 49 52 52 53 55
43 42 43 46 45 42 42 43 43 46 42 41 48 52 53 54 51 50 46 42 43 46 50 50 52 53 54
43 45 47 47 45 45 45 43 43 45 47 50 52 56 58 54 51 48 44 43 43 47 48 49 52 53 56
Wind_Direction
232 233 239 245 250 259 270 275 281 291 298 306 310 315 318 322 325 327 328 330 331 328 332 331 332 331 331
231 232 239 243 253 265 269 274 283 292 299 303 311 315 319 320 321 324 327 327 328 329 329 328 330 330 330
232 236 241 250 255 260 269 276 287 295 295 302 310 312 316 318 321 323 325 331 327 328 326 327 327 328 327
231 234 239 247 255 264 271 281 288 290 294 304 307 311 313 318 320 325 326 325 325 328 328 325 326 325 326
233 236 241 248 255 267 275 278 284 288 296 302 307 309 312 317 321 322 324 324 323 327 327 324 323 323 324
231 234 240 250 261 266 273 278 283 290 295 301 304 308 312 315 319 320 320 321 325 325 324 322 321 322 324
234 238 244 251 258 266 271 276 283 289 297 300 303 308 311 315 316 320 316 322 323 324 323 320 320 321 324
235 238 242 246 255 264 270 276 285 290 294 297 302 307 312 312 313 314 318 320 324 324 322 318 318 321 326
237 241 246 251 258 263 270 279 283 287 292 296 301 308 309 312 314 318 321 320 322 322 319 317 318 322 326
239 243 247 252 259 268 273 278 281 284 290 296 299 307 310 311 312 317 318 320 321 320 315 316 318 323 324
240 246 252 259 264 267 272 275 278 286 291 294 297 306 308 308 312 317 319 318 319 315 311 313 319 322 323
244 249 256 260 265 268 270 273 279 286 290 294 296 304 307 307 313 315 317 318 315 310 311 313 320 321 323
246 249 254 259 262 267 271 276 281 288 291 292 304 304 304 307 311 314 317 316 309 310 310 315 319 321 322
247 251 254 258 261 266 270 275 285 290 295 296 298 302 304 306 309 312 315 312 308 308 310 316 319 321 324
249 253 255 259 261 265 271 279 286 288 292 294 300 301 303 304 308 313 313 310 307 307 311 317 319 320 323
252 254 261 263 265 267 274 282 284 289 291 300 302 304 305 307 309 313 311 307 305 307 313 316 318 320 322
248 250 254 265 266 268 274 279 281 292 291 295 298 304 305 307 307 308 304 302 303 308 313 317 319 321 323
Height
5823 5826 5830 5831 5832 5833 5835 5834 5834 5833 5831 5827 5825 5820 5816 5811 5806 5799 5794 5788 5780 5774 5767 5759 5751 5742 5736
5817 5821 5823 5825 5828 5829 5829 5829 5829 5828 5826 5822 5819 5815 5810 5805 5799 5793 5788 5782 5776 5768 5760 5753 5744 5736 5728
5812 5815 5818 5821 5823 5823 5824 5823 5823 5822 5819 5816 5813 5809 5803 5799 5793 5788 5783 5776 5769 5762 5754 5745 5737 5728 5721
5806 5809 5813 5815 5817 5818 5818 5818 5817 5815 5812 5811 5807 5802 5797 5793 5788 5782 5776 5770 5763 5755 5746 5737 5729 5722 5715
5799 5804 5806 5809 5809 5811 5812 5811 5810 5808 5807 5804 5801 5796 5791 5786 5781 5776 5771 5764 5756 5748 5739 5730 5722 5715 5709
5792 5796 5799 5802 5804 5804 5804 5804 5804 5802 5800 5797 5793 5789 5784 5780 5775 5770 5764 5757 5749 5740 5732 5723 5715 5709 5703
5785 5790 5794 5795 5797 5798 5797 5796 5796 5795 5794 5790 5786 5782 5778 5774 5769 5763 5755 5749 5741 5733 5724 5716 5710 5704 5696
5779 5782 5785 5786 5789 5790 5790 5790 5790 5788 5786 5783 5779 5775 5770 5767 5762 5755 5748 5741 5733 5725 5717 5710 5703 5696 5689
5771 5775 5777 5780 5781 5781 5782 5783 5783 5780 5778 5774 5771 5768 5764 5760 5753 5747 5741 5733 5724 5717 5709 5703 5697 5689 5681
5763 5767 5769 5771 5773 5774 5775 5775 5774 5772 5769 5767 5763 5760 5757 5751 5745 5739 5732 5725 5717 5708 5702 5696 5689 5681 5673
5753 5757 5762 5766 5766 5766 5767 5766 5765 5764 5761 5757 5754 5751 5748 5742 5736 5730 5724 5716 5709 5701 5695 5689 5682 5674 5665
5747 5751 5755 5757 5758 5759 5759 5757 5757 5755 5752 5749 5745 5742 5738 5733 5728 5721 5715 5708 5700 5694 5688 5682 5675 5666 5659
5740 5743 5745 5747 5749 5751 5751 5751 5749 5746 5743 5739 5738 5733 5730 5724 5718 5712 5705 5698 5691 5686 5681 5674 5668 5660 5651
5731 5735 5736 5739 5739 5741 5742 5741 5739 5737 5733 5730 5727 5724 5719 5715 5708 5702 5695 5689 5683 5678 5673 5667 5659 5651 5643
5723 5726 5728 5731 5731 5731 5732 5732 5730 5727 5724 5720 5717 5714 5709 5704 5699 5692 5685 5679 5675 5671 5665 5659 5652 5644 5635
5715 5717 5720 5722 5722 5722 5722 5722 5720 5718 5713 5710 5708 5704 5699 5694 5688 5682 5677 5672 5667 5662 5655 5648 5643 5636 5628
5704 5707 5710 5711 5711 5712 5712 5712 5710 5706 5702 5700 5697 5693 5688 5683 5678 5673 5668 5664 5659 5653 5645 5639 5633 5625 5617